Location: Roanoke
(37.2710°N, 79.9420°W)
Time: 18:19:44
(UTC-05:00)

Explorer 7 - All Passes

Search period start: 11 November 2019 00:00
Search period end: 21 November 2019 00:00
Orbit: 485 x 680 km, 50.3° (Epoch: 11 November)

Date Brightness Start Highest point End Pass type
(mag) Time Alt. Az. Time Alt. Az. Time Alt. Az.
11 Nov - 01:33:21 10° S 01:36:42 20° SE 01:39:55 10° E night (unlit)
11 Nov - 03:12:35 10° WSW 03:16:59 62° NW 03:21:07 10° NE visible
11 Nov - 04:55:13 10° WNW 04:58:07 18° NNW 05:00:54 10° NNE visible
11 Nov - 06:38:07 10° NNW 06:39:55 13° N 06:41:42 10° NNE daylight
11 Nov - 08:18:16 10° NNW 08:21:32 25° NNE 08:24:43 10° E daylight
11 Nov - 09:58:30 10° WNW 10:02:12 52° SW 10:05:50 10° SE daylight
12 Nov - 01:37:24 10° SSW 01:41:32 34° SE 01:45:26 10° ENE night (unlit)
12 Nov - 03:17:51 10° WSW 03:22:02 40° NNW 03:25:58 10° NE visible
12 Nov - 05:00:58 10° NW 05:03:24 15° NNW 05:05:45 10° NNE visible
12 Nov - 06:43:07 10° NNW 06:45:16 14° N 06:47:22 10° NE daylight
12 Nov - 08:23:03 10° NW 08:26:41 36° NNE 08:30:11 10° E daylight
12 Nov - 10:03:46 10° WNW 10:07:03 28° SW 10:10:17 10° SSE daylight
13 Nov - 01:41:54 10° SW 01:46:24 58° SE 01:50:38 10° ENE night (unlit)
13 Nov - 03:23:19 10° W 03:27:09 28° NNW 03:30:47 10° NE visible
13 Nov - 05:06:40 10° NW 05:08:44 13° N 05:10:45 10° NNE visible
13 Nov - 06:47:58 10° NNW 06:50:35 17° NNE 06:53:07 10° ENE daylight
13 Nov - 08:27:54 10° NW 08:31:45 59° NE 08:35:27 10° ESE daylight
13 Nov - 10:09:29 10° W 10:11:50 16° SW 10:14:09 10° SSW daylight
14 Nov - 00:08:37 10° SSE 00:11:11 15° SE 00:13:41 10° E night (unlit)
14 Nov - 01:46:45 10° SW 01:51:20 85° NW 01:55:39 10° NE night (unlit)
14 Nov - 03:28:56 10° WNW 03:32:20 21° NNW 03:35:35 10° NNE visible
14 Nov - 05:12:08 10° NNW 05:14:05 13° N 05:15:59 10° NNE visible
14 Nov - 06:52:45 10° NNW 06:55:50 21° NNE 06:58:49 10° ENE daylight
14 Nov - 08:32:50 10° NW 08:36:43 79° SW 08:40:27 10° SE daylight
15 Nov - 00:12:09 10° S 00:15:58 25° SE 00:19:36 10° ENE night (unlit)
15 Nov - 01:51:51 10° WSW 01:56:21 54° NNW 02:00:34 10° NE night (unlit)
15 Nov - 03:34:39 10° WNW 03:37:35 17° NNW 03:40:24 10° NNE visible
15 Nov - 05:17:19 10° NNW 05:19:26 14° N 05:21:30 10° NE visible
15 Nov - 06:57:31 10° NW 07:01:02 29° NNE 07:04:24 10° E daylight
15 Nov - 08:37:56 10° WNW 08:41:37 42° SW 08:45:10 10° SSE daylight
16 Nov - 00:16:24 10° SSW 00:20:47 41° SE 00:24:59 10° ENE night (unlit)
16 Nov - 01:57:11 10° W 02:01:25 36° NNW 02:05:24 10° NE night (unlit)
16 Nov - 03:40:22 10° NW 03:42:53 15° N 03:45:19 10° NNE visible
16 Nov - 05:22:18 10° NNW 05:24:46 15° N 05:27:11 10° NE visible
16 Nov - 07:02:20 10° NW 07:06:08 43° NNE 07:09:47 10° ESE daylight
16 Nov - 08:43:18 10° WNW 08:46:26 24° SW 08:49:29 10° S daylight
16 Nov - 22:45:05 10° SE 22:45:40 10° SE 22:46:15 10° ESE night (unlit)
17 Nov - 00:21:01 10° SW 00:25:41 69° SE 00:30:06 10° ENE night (unlit)
17 Nov - 02:02:41 10° W 02:06:32 27° NNW 02:10:13 10° NE night (unlit)
17 Nov - 03:45:58 10° NW 03:48:13 14° N 03:50:24 10° NNE visible
17 Nov - 05:27:08 10° NNW 05:30:04 18° NNE 05:32:53 10° ENE visible
17 Nov - 07:07:12 10° NW 07:11:10 72° NE 07:14:57 10° ESE daylight
17 Nov - 08:49:18 10° W 08:51:10 13° SW 08:53:00 10° SSW daylight
17 Nov - 22:47:11 10° S 22:50:24 18° SE 22:53:32 10° E night (unlit)
18 Nov - 00:25:57 10° WSW 00:30:39 74° NW 00:35:04 10° NE night (unlit)
18 Nov - 02:08:19 10° WNW 02:11:45 21° NNW 02:15:02 10° NNE night (unlit)
18 Nov - 03:51:22 10° NNW 03:53:34 14° N 03:55:44 10° NNE visible
18 Nov - 05:31:56 10° NNW 05:35:18 24° NNE 05:38:32 10° ENE visible
18 Nov - 07:12:11 10° WNW 07:16:07 65° SW 07:19:53 10° SE daylight
18 Nov - 22:51:02 10° SSW 22:55:11 30° SE 22:59:12 10° ENE night (unlit)
19 Nov - 00:31:07 10° WSW 00:35:40 48° NNW 00:39:58 10° NE night (unlit)
19 Nov - 02:14:01 10° NW 02:17:00 17° NNW 02:19:54 10° NNE night (unlit)
19 Nov - 03:56:30 10° NNW 03:58:56 15° N 04:01:16 10° NE visible
19 Nov - 05:36:43 10° NW 05:40:29 33° NNE 05:44:02 10° E visible
19 Nov - 07:17:20 10° WNW 07:20:59 36° SW 07:24:28 10° SSE daylight
19 Nov - 22:55:25 10° SSW 23:00:02 50° SE 23:04:28 10° ENE night (unlit)
20 Nov - 00:36:30 10° W 00:40:44 34° NNW 00:44:48 10° NE night (unlit)
20 Nov - 02:19:42 10° NW 02:22:20 15° N 02:24:53 10° NNE night (unlit)
20 Nov - 04:01:26 10° NNW 04:04:15 17° NNE 04:06:57 10° NE visible
20 Nov - 05:41:34 10° NW 05:45:34 51° NNE 05:49:21 10° ESE visible
20 Nov - 07:22:49 10° W 07:25:45 20° SW 07:28:36 10° S daylight
20 Nov - 21:22:42 10° SSE 21:24:52 13° SE 21:26:59 10° E night (unlit)
20 Nov - 23:00:08 10° SW 23:04:56 81° SE 23:09:31 10° NE night (unlit)
